User: anonymous   Login
Location: Unspecified
(0.0000°N, 0.0000°E)
Time: 23:22:45
(UTC+00:00)
Language:

YAOGAN-31 A - Orbit

View from above orbital plane
View from above orbital plane
View from above satellite
View from above satellite

Ground track
Ground track

The orbit is defined by the following mean orbital elements,

1 43275U          26145.61725215 +.00000000 +00000-0 -18546-3 0 00009
2 43275  63.3928 149.3551 0273437   7.3272 353.1625 13.45458409    07
Epoch (UTC): 25 May 2026 14:48:50
Eccentricity: 0.0273437
inclination: 63.3928°
perigee height: 885 km
apogee height: 1293 km
right ascension of ascending node: 149.3551°
argument of perigee: 7.3272°
revolutions per day: 13.45458409
mean anomaly at epoch: 353.1625°

The dashed part of the orbit path shows where the satellite is in the earth's shadow,  

DLR